www.pogodaiklimat.ru

АРХИВ ПОГОДЫ в Чикаго

Время (UTC), дата Ветер
(напр.,м/с)
 
Видим.   Явления Облачность Т
(С)
Тd
(С)
f
(%)
Тe
(С)
Тes
(С)
Комфортность

P
(гПа)

Po
(гПа)
Тmin
(С)
Tmax
(С)
R
(мм)
SD
(см)
07:51 18.01 ЮЗ  8
{11} 
16 км    ясно  -8.3  -12.8  70  -18  -18    1022.8  997.2         
08:51 18.01 ЮЗ  6
{10} 
16 км    ясно  -8.3  -12.8  70  -17  -17    1022.3  996.5         
09:51 18.01 З  16 км    ясно  -8.3  -12.8  70  -17  -17    1022.0  996.5         
10:51 18.01 З  5
{9} 
16 км    ясно  -8.3  -12.8  70  -17  -17    1022.2  996.5         
11:51 18.01 ЮЗ  6
{9} 
16 км    ясно  -8.0  -13.0  67  -17  -17    1021.6  996.2  -8.3     
12:51 18.01 ЮЗ  16 км    2/0 7500 м
[верхняя] 
-8.3  -12.8  70  -17  -17    1021.8  996.2         
13:51 18.01 ЮЗ  16 км    2/0 7500 м
[верхняя] 
-8.3  -12.2  73  -17  -17    1020.8  995.2         
14:51 18.01 ЮЗ  9
{12} 
16 км    2/0 7500 м
[верхняя] 
-7.2  -12.2  67  -17  -17    1020.7  995.2         
15:51 18.01 ЮЗ  7
{12} 
16 км    2/0 7500 м
[верхняя] 
-5.6  -11.1  65  -14  -14    1019.5  994.2         
16:51 18.01 З  7
{9} 
16 км    8/0 7500 м
[верхняя] 
-3.9  -10.6  60  -12  -12    1020.3  994.9         
17:51 18.01 ЮЗ  16 км    5/0 7500 м
[верхняя] 
-3.0  -11.0  54  -11  -10    1019.6  994.2  -8.9  -3.3   
18:51 18.01 ЮЗ  9
{12} 
16 км    2/0 7500 м
[верхняя] 
-1.7  -8.9  58  -10  -10    1017.7  992.6         
19:51 18.01 ЮЗ  7
{10} 
16 км    2/0 7500 м
[верхняя] 
0.0  -8.3  54  -7  -6    1017.0  991.6         
20:51 18.01 ЮЗ  7
{11} 
16 км    2/0 7500 м
[верхняя] 
0.0  -8.3  54  -7  -7    1016.3  990.9         
21:51 18.01 ЮЗ  9
{11} 
16 км    ясно  0.0  -8.3  54  -8  -8    1015.8  990.6         
22:51 18.01 ЮЗ  8
{11} 
16 км    2/0 7500 м
[верхняя] 
-0.6  -7.2  61  -8  -8    1016.1  990.9         
23:51 18.01 ЮЗ  7
{9} 
16 км    2/0 7500 м
[верхняя] 
-1.0  -7.0  64  -8  -8    1016.9  991.6  -3.3     
00:51 19.01 ЮЗ  6
{9} 
16 км    2/0 7500 м
[верхняя] 
-0.6  -6.7  63  -8  -8    1016.7  991.6         
01:51 19.01 ЮЗ  16 км    2/0 7500 м
[верхняя] 
-0.6  -6.7  63  -8  -8    1015.7  990.6         
02:51 19.01 ЮЗ  16 км    2/0 7500 м
[верхняя] 
-0.6  -6.7  63  -6  -6    1015.7  990.6         
03:51 19.01 ЮЗ  16 км    5/0 7500 м
[верхняя] 
-0.6  -6.7  63  -6  -6    1016.2  990.9         
04:51 19.01 ЮЗ  16 км    5/0 7500 м
[верхняя] 
-1.1  -7.2  63  -8  -8    1015.7  990.6         
05:51 19.01 ЮЗ  16 км    2/0 7500 м
[верхняя] 
-2.0  -7.0  69  -8  -8    1015.0  989.9  -1.7     
06:51 19.01 ЮЗ  16 км    2/0 7500 м
[верхняя] 
-1.1  -7.8  60  -7  -7    1014.4  989.3         
07:51 19.01 ЮЗ  16 км    2/0 7500 м
[верхняя] 
-1.1  -7.8  60  -8  -8    1014.1  989.3         
08:51 19.01 ЮЗ  16 км    2/0 7500 м
[верхняя] 
-1.7  -7.8  63  -9  -9    1014.3  989.3         
09:51 19.01 ЮЗ  16 км    2/0 7500 м
[верхняя] 
-2.2  -7.8  65  -9  -9    1013.8  988.9         
10:51 19.01 ЮЗ  16 км    5/0 7500 м
[верхняя] 
-1.7  -7.2  66  -9  -9    1013.4  988.3         
11:51 19.01 ЮЗ  7
{11} 
16 км    5/0 7500 м
[верхняя] 
-2.0  -7.0  69  -10  -10    1012.8  987.9  -2.2     
12:51 19.01 ЮЗ  16 км    5/0 5400 м
[средняя верхняя] 
-1.7  -7.2  66  -9  -9    1012.8  987.9         
13:51 19.01 ЮЗ  16 км    5/0 7500 м
[верхняя] 
-1.7  -7.8  63  -9  -9    1012.9  987.9         
14:51 19.01 ЮЗ  7
{9} 
16 км    8/0 7500 м
[верхняя] 
-0.6  -7.2  61  -8  -8    1012.9  987.9         
15:51 19.01 ЮЗ  7
{11} 
16 км    8/0 7500 м
[верхняя] 
+0.6  -7.2  56  -6  -6    1012.9  987.9         
16:51 19.01 ЮЗ  8
{11} 
16 км    8/0 7500 м
[верхняя] 
+1.1  -6.7  56  -6  -5    1012.6  987.6         
17:51 19.01 ЮЗ  8
{10} 
16 км    10/0 7500 м
[верхняя] 
+2.0  -6.0  55  -5  -4    1010.7  986.0  -1.7     
18:51 19.01 ЮЗ  16 км    8/0 7500 м
[верхняя] 
+3.3  -5.6  52  -2  -2    1009.4  984.6         
19:51 19.01 ЮЗ  16 км    8/0 7500 м
[верхняя] 
+3.9  -4.4  55  -2  -2    1008.4  983.6         
20:51 19.01 ЮЗ  9
{13} 
16 км    8/0 7500 м
[верхняя] 
+3.9  -4.4  55  -3  -3      983.6         
21:51 19.01 ЮЗ  10
{13} 
16 км    8/0 7500 м
[верхняя] 
+3.9  -3.9  57  -3  -3    1008.3  983.6         
22:51 19.01 Ю  8
{11} 
16 км    8/0 7500 м
[верхняя] 
+3.3  -2.8  64  -3  -3      983.0         
23:51 19.01 ЮЗ  8
{13} 
16 км    8/0 7500 м
[верхняя] 
+4.0  -2.0  65  -2  -2    1007.2  982.7  +2.2     
00:51 20.01 ЮЗ  9
{14} 
16 км    8/0 4500 м
[средняя верхняя] 
+4.4  -2.2  62  -2  -2    1007.0  982.3         
01:51 20.01 ЮЗ  9
{14} 
16 км    10/0 7500 м
[верхняя] 
+4.4  -2.2  62  -2  -2      982.0         
02:51 20.01 ЮЗ  9
{14} 
16 км    10/0 7500 м
[верхняя] 
+4.4  -2.2  62  -2  -2      982.3         
03:51 20.01 ЮЗ  9
{13} 
16 км    10/0 7500 м
[верхняя] 
+4.4  -2.2  62  -2  -2    1007.7  983.0         
04:51 20.01 ЮЗ  8
{11} 
16 км    10/0 7200 м
[верхняя] 
+3.9  -2.2  64  -2  -2    1008.4  983.6         
05:51 20.01 ЮЗ  16 км    8/0 7200 м
[верхняя] 
+3.9  -2.2  64  -2  -2    1008.7  984.0         
06:51 20.01 ЮЗ  16 км    2/0 7500 м
[верхняя] 
+3.3  -2.8  64  -2  -2    1008.9  984.3         

 

Местоположение метеостанции Chicago-O`Hare International Airport: широта 41.9797 долгота -87.9044 высота над уровнем моря 203 м.

В архиве по умолчанию представлена погода в Чикаго за последние 1-2 суток. Обновление информации о фактической погоде в базе происходит ежечасно! Архивные данные за месяц целиком и за предыдущие месяцы Вы можете получить, выбрав интересующий диапазон дат из раскрывающегося списка и нажав кнопку "Ввод!".

Внимание! Архив погоды МЕТАР в базе сайта в настоящее время начинается c 1 января 2013 г. Нет смысла пытаться выбрать более раннюю дату.

Внимание! Время в таблицах - всемирное. Для получения местного времени необходимо прибавить поправку, которая в Чикаго равна -6 ч.

Ветер - указаны скорость ветра в м/с и направление, откуда дует ветер: С - северный, СВ - северо-восточный, В - восточный, ЮВ - юго-восточный, Ю - южный, ЮЗ - юго-западный, З - западный, СЗ - северо-западный.
Видимость - горизонтальная дальность видимости в метрах или километрах. При видимости от 1 до 10 км при отсутствии осадков обычно наблюдается дымка, при ухудшении видимости до 1 км и менее - туман. В сухую погоду видимость может ухудшаться дымом, пылью или мглою.
Атмосферные явления - указаны явления, наблюдавшиеся в указанный момент времени.
Облачность - указаны через наклонную черту верхняя и нижняя облачность в баллах и высота нижней границы облаков в метрах. Внимание: облачность, как и прочие метеорологические величины в США измеряются автоматическими метеостанциями. Указанные значения в баллах носят условный характер и показывают процент времени, в течение которого, в среднем, лазерный луч высотомера отражался от облаков обратно.
T - Температура воздуха - температура, измеренная на высоте 2 м над землей.
Td - Температура точки росы - температура, при понижении до которой содержащийся в воздухе водяной пар достигнет насыщения.
f - Относительная влажность воздуха - влажноcть воздуха, измеренная на высоте 2 м над землей.
Te - Эффективная температура - температура, которую ощущает одетый по сезону человек в тени. Характеристика душности погоды. При расчете учитывается влияние влажности воздуха и скорости ветра на теплоощущения человека.
Tes - Эффективная температура на солнце - температура, которую ощущает человек, с поправкой на солнечный нагрев. Характеристика знойности погоды. Зависит от высоты солнца над горизонтом, облачности и скорости ветра. Ночью, в пасмурную погоду, а также при ветре 12 м/с и более поправка равна нулю.
P - Атмосферное давление - приведенное к уровню моря атмосферное давление.
Po - Атмосферное давление - измеренное на уровне метеостанции атмосферное давление.
Tmin - Минимальная температура - минимум температуры воздуха на высоте 2 м над землей.
Tmax - Максимальная температура - максимум температуры воздуха на высоте 2 м над землей.
R - Количество осадков - Количество выпавших осадков за 3 или 6 часов, мм.
SD - Снежный покров - Высота снежного покрова, см.